TimeEDT,TemperatureF,Dew PointF,Humidity,Sea Level PressureIn,VisibilityMPH,Wind Direction,Wind SpeedMPH,Gust SpeedMPH,PrecipitationIn,Events,Conditions,WindDirDegrees,DateUTC
12:53 AM,17.1,9.0,71,30.30,10.0,Calm,Calm,-,N/A,,Clear,0,2013-03-18 04:53:00
1:53 AM,17.1,8.1,68,30.30,10.0,North,5.8,-,N/A,,Clear,10,2013-03-18 05:53:00
2:53 AM,18.0,8.1,65,30.31,10.0,ENE,5.8,-,N/A,,Clear,60,2013-03-18 06:53:00
3:53 AM,17.1,7.0,65,30.32,10.0,ENE,5.8,-,N/A,,Clear,70,2013-03-18 07:53:00
4:53 AM,17.1,6.1,62,30.32,10.0,East,3.5,-,N/A,,Clear,80,2013-03-18 08:53:00
5:53 AM,18.0,7.0,62,30.35,10.0,East,8.1,-,N/A,,Clear,100,2013-03-18 09:53:00
7:53 AM,18.0,6.1,60,30.34,10.0,East,8.1,-,N/A,,Clear,100,2013-03-18 11:53:00
8:53 AM,18.0,6.1,60,30.35,10.0,East,9.2,-,N/A,,Clear,100,2013-03-18 12:53:00
9:53 AM,21.0,6.1,53,30.33,10.0,ESE,10.4,-,N/A,,Clear,110,2013-03-18 13:53:00
10:53 AM,23.0,7.0,50,30.32,10.0,SE,12.7,-,N/A,,Clear,130,2013-03-18 14:53:00
11:53 AM,24.1,9.0,53,30.31,10.0,SE,13.8,20.7,N/A,,Mostly Cloudy,130,2013-03-18 15:53:00
12:53 PM,25.0,12.0,58,30.27,10.0,SE,12.7,20.7,N/A,,Overcast,130,2013-03-18 16:53:00
1:53 PM,26.1,15.1,63,30.25,10.0,SE,13.8,20.7,N/A,,Overcast,130,2013-03-18 17:53:00
2:33 PM,26.6,15.8,64,30.14,10.0,ESE,11.5,-,N/A,,Overcast,120,2013-03-18 18:33:00
2:53 PM,26.1,16.0,66,30.22,10.0,ESE,13.8,19.6,N/A,,Overcast,110,2013-03-18 18:53:00
3:53 PM,25.0,18.0,75,30.17,3.0,ESE,16.1,24.2,0.00,Snow,Light Snow,120,2013-03-18 19:53:00
4:07 PM,24.8,19.4,80,30.07,2.5,ESE,17.3,21.9,0.00,,Overcast,110,2013-03-18 20:07:00
4:49 PM,24.8,21.2,86,30.05,1.2,ESE,15.0,21.9,0.00,Snow,Light Snow,120,2013-03-18 20:49:00
4:53 PM,24.1,21.0,88,30.14,1.0,ESE,15.0,-,0.00,Snow,Light Snow,120,2013-03-18 20:53:00
4:56 PM,24.8,21.2,86,30.04,0.8,ESE,11.5,20.7,0.00,Snow,Light Snow,110,2013-03-18 20:56:00
5:11 PM,24.8,21.2,86,30.03,0.2,ESE,16.1,26.5,0.00,Fog-Snow,Snow,110,2013-03-18 21:11:00
5:39 PM,24.8,21.2,86,30.01,0.2,ESE,15.0,23.0,0.00,Fog-Snow,Heavy Snow,110,2013-03-18 21:39:00
5:53 PM,24.1,21.0,88,30.11,0.2,ESE,13.8,20.7,0.00,Fog-Snow,Snow,110,2013-03-18 21:53:00
6:53 PM,24.1,21.0,88,30.09,0.2,ESE,16.1,23.0,0.00,Fog-Snow,Snow,110,2013-03-18 22:53:00
7:08 PM,24.8,21.2,86,29.99,0.2,ESE,16.1,24.2,0.00,Fog-Snow,Snow,110,2013-03-18 23:08:00
7:16 PM,24.8,21.2,86,29.99,0.5,ESE,15.0,23.0,0.00,Fog-Snow,Snow,120,2013-03-18 23:16:00
7:53 PM,23.0,21.0,92,30.07,0.5,ESE,18.4,24.2,0.00,Fog-Snow,Snow,120,2013-03-18 23:53:00
8:22 PM,23.0,21.2,93,29.98,0.8,ESE,13.8,24.2,0.00,Snow,Light Snow,110,2013-03-19 00:22:00
8:45 PM,23.0,21.2,93,29.98,0.8,ESE,15.0,23.0,0.00,Snow,Light Snow,110,2013-03-19 00:45:00
8:53 PM,23.0,21.0,92,30.07,0.8,ESE,17.3,25.3,0.00,Snow,Light Snow,110,2013-03-19 00:53:00
9:04 PM,23.0,21.2,93,29.97,0.8,ESE,17.3,24.2,0.00,Snow,Light Snow,110,2013-03-19 01:04:00
9:12 PM,23.0,21.2,93,29.97,1.0,ESE,16.1,23.0,0.00,Snow,Light Snow,110,2013-03-19 01:12:00
9:53 PM,23.0,21.0,92,30.04,1.0,East,17.3,24.2,0.00,Snow,Light Snow,100,2013-03-19 01:53:00
10:00 PM,23.0,21.2,93,29.95,-9999.0,ESE,13.8,24.2,0.00,Snow,Light Snow,110,2013-03-19 02:00:00
10:27 PM,23.0,21.2,93,29.94,1.8,ESE,16.1,-,0.00,Snow,Light Snow,110,2013-03-19 02:27:00
10:36 PM,23.0,21.2,93,29.94,-9999.0,ESE,16.1,-,0.00,Snow,Light Snow,110,2013-03-19 02:36:00
10:53 PM,24.1,21.0,88,30.01,1.5,East,15.0,23.0,0.00,Snow,Light Snow,100,2013-03-19 02:53:00
11:22 PM,24.8,21.2,86,29.90,1.2,East,18.4,25.3,0.00,Snow,Light Snow,100,2013-03-19 03:22:00
11:47 PM,24.8,21.2,86,29.88,2.0,ESE,16.1,26.5,0.00,Rain,Light Freezing Rain,110,2013-03-19 03:47:00
11:53 PM,24.1,21.9,91,29.96,2.0,East,18.4,24.2,0.00,Rain,Light Freezing Rain,100,2013-03-19 03:53:00